星链-30705 (STARLINK-30705 )

导读 | 星芒AI

STARLINK-30705 是 SpaceX Starlink 卫星互联网项目中的一颗低轨卫星,属于第三代星链卫星(v1.5)。该卫星于2023年发射,旨在为全球用户提供高速、低延迟的宽带互联网服务。它运行在约540公里高的近地轨道,配备先进通信设备和激光链路,以提升网络性能和卫星间通信能力。作为星链计划的重要组成部分,STARLINK-30705 有助于扩大覆盖范围,提高连接质量,特别是在偏远和网络基础设施薄弱的地区。

基本信息
目录编号:
57945
目录名称:
STARLINK-30705
国际标识:
2023-148L
轨道中心:
EARTH
卫星名称:
星链-30705
卫星全名:
星链-30705 (STARLINK-30705 )
卫星状态:
在轨 (已飞行767 天)
发射日期:
2023-09-25 UTC
国别 :
美国 (US)
星等 :
--
轨道信息
数据来源 国际轨道数据
星历时间: 2025-10-30T22:23:04+0800
16小时前
查看轨道信息
半长轴: 6853.35km
偏心率: 0.0001166
轨道倾角: 53.160°
近地点辐角 79.060°
升交点赤经 268.634°
平近点角 281.053°
近地点: 474.415km
远地点: 476.015km
周期: 94.105分钟
每日圈数: 15.302008
详细信息
固有亮度:
5
最大亮度:
0.3
卫星平台:
Starlink v2.0 mini
覆盖范围:
全球
运营商:
太空探索技术公司
运营商所在国:
美国
制造商(研发单位):
太空探索技术公司
制造商所在国:
美国
使用方式:
暂无
卫星简介
星链(Starlink)计划是由太空探索技术公司(SpaceX)提出的一个巨型低轨卫星互联网星座项目,计划在2019年至2024年间在太空搭建由约1.2万颗卫星组成的“星链”网络,其中1584颗将部署在地球上空550千米处的近地轨道,并从2020年开始工作。该卫星仍在工作。
2D轨道图
3D轨道图
轨道高度分析图
轨道倾角分析图
轨道综合分析图
查看轨道综合分析图